Probability
0 0 0 0 0 0 0 0 0 0 0 0 0 3 16 26 23 32 71 87 97 100 100 97 97 94 94 97 97 97 97 97 97 94 94 94 94 90 90 90 77 81 87 84
0 0 0 0 0 0 0 0 0 0 0 0 3 6 16 23 26 35 61 81 97 97 97 94 94 94 97 97 97 94 94 97 97 94 94 97 97 94 94 90 84 77 77 74
0 0 0 0 0 0 0 0 0 0 0 0 3 3 10 26 39 35 48 58 71 87 94 97 90 90 94 97 94 90 94 94 94 94 94 90 94 90 87 90 90 84 84 81
0 0 0 0 0 0 0 0 0 0 0 0 0 0 13 16 26 39 39 48 65 74 84 84 90 90 94 94 90 90 87 87 94 90 87 90 90 87 90 87 90 84 77 74
0 0 0 0 0 0 0 0 0 0 0 0 0 0 3 13 19 32 39 48 58 68 81 81 87 90 87 87 87 87 77 87 87 84 87 84 84 81 84 90 87 84 77 74
0 0 0 0 0 0 0 0 0 0 0 0 0 0 0 0 19 19 39 55 68 65 71 77 84 90 87 84 84 81 84 84 84 84 81 84 84 84 81 84 90 74 77 81
0 0 0 0 0 0 0 0 0 0 0 0 0 0 3 13 16 26 42 45 61 58 74 84 87 84 87 84 81 74 81 84 84 84 81 81 81 84 74 77 77 77 65 58
0 0 0 0 0 0 0 0 0 0 0 0 0 0 3 23 19 29 39 45 61 68 71 81 87 87 90 90 74 74 81 84 84 81 77 81 84 87 84 74 81 71 61 58
0 0 0 0 0 0 0 0 0 0 0 0 0 0 6 19 23 29 35 45 65 77 77 84 87 87 90 81 77 77 81 81 81 81 81 84 84 81 77 81 65 61 68 55
0 0 0 0 0 0 0 0 0 0 0 0 0 0 0 13 23 32 32 42 65 77 81 71 84 87 84 81 81 74 74 77 77 77 81 71 74 74 65 58 68 68 61 55
0 0 0 0 0 0 0 0 0 0 0 0 0 0 0 10 29 29 32 52 65 74 77 68 77 81 81 77 74 77 77 74 71 71 71 74 68 61 52 55 55 61 65 52
0 0 0 0 0 0 0 0 0 0 0 0 0 0 3 10 23 35 48 52 61 71 71 74 74 74 74 74 77 71 68 65 71 68 71 71 61 52 48 45 61 61 52 52
0 0 0 0 0 0 0 0 0 0 0 0 0 0 6 19 19 32 48 55 68 71 71 71 74 74 74 74 74 74 71 71 68 61 61 61 58 58 48 48 48 55 55 52
0 0 0 0 0 0 0 0 0 0 0 0 0 0 13 13 16 29 55 61 65 74 77 77 77 74 77 77 71 71 68 65 58 58 58 58 55 42 42 42 42 48 52 45
0 0 0 0 0 0 0 0 0 0 0 0 0 0 3 19 23 35 55 58 68 71 74 74 74 74 74 71 68 61 61 58 58 48 58 55 42 39 35 35 39 35 39 19
0 0 0 0 0 0 0 0 0 0 0 0 0 0 16 19 29 42 55 61 65 77 74 71 71 65 68 71 65 61 61 58 55 52 45 42 35 32 26 29 29 35 35 35
0 0 0 0 0 0 0 0 0 0 0 0 0 3 19 23 45 52 55 61 65 74 68 65 65 65 61 58 58 61 55 52 48 45 42 35 29 23 23 19 23 32 32 26
0 0 0 0 0 0 0 0 3 3 3 3 6 16 29 35 42 48 58 65 65 58 61 61 61 55 58 58 58 55 52 45 45 42 35 35 26 23 19 19 23 26 23 19
0 0 0 0 0 0 3 6 10 6 6 10 16 26 26 35 39 52 52 61 61 61 68 65 61 55 55 58 55 52 42 39 39 32 32 26 23 23 19 23 23 23 13 13
0 0 0 0 0 0 0 6 13 13 6 23 26 39 32 35 29 42 61 61 61 68 65 58 55 58 55 55 52 42 35 35 35 29 26 23 23 23 26 26 19 13 10 6
0 0 0 0 0 0 10 16 10 3 16 35 42 45 55 55 55 65 65 58 61 58 58 52 48 45 42 42 39 35 32 29 29 32 29 26 23 19 19 19 19 16 10 6
0 0 0 0 0 0 16 19 16 42 55 55 58 55 52 61 58 58 58 55 58 55 52 45 42 39 35 35 32 32 32 32 32 32 29 29 23 19 13 16 16 13 3 3
3 6 10 6 10 35 35 39 45 48 52 58 58 55 58 55 55 58 55 52 52 48 39 35 32 39 35 32 35 35 32 26 26 29 29 29 19 16 13 16 10 10 3 3
3 10 16 26 19 23 29 29 35 42 45 45 55 55 52 48 52 48 45 45 45 45 35 35 35 29 29 32 29 26 26 26 26 23 10 10 0 3 3 6 6 3 0 3
10 10 16 26 19 29 26 26 32 39 39 39 42 48 48 48 39 32 39 39 35 26 29 29 29 23 19 23 19 19 19 16 13 3 3 0 0 0 0 0 0 0 0 0
3 6 16 19 26 26 26 23 32 29 32 32 39 45 39 39 32 29 26 32 32 23 23 23 19 16 16 13 16 13 16 13 6 3 0 0 0 0 0 0 0 0 0 0
Height
5902 5906 5909 5912 5914 5916 5918 5920 5921 5921 5922 5923 5924 5925 5925 5924 5924 5923 5923 5922 5921 5920 5918 5917 5916 5915 5914 5913 5912 5910 5909 5908 5907 5905 5904 5903 5903 5902 5901 5900 5900 5900 5901 5901
5900 5902 5905 5907 5910 5912 5914 5917 5918 5919 5920 5921 5922 5923 5923 5923 5923 5922 5922 5921 5920 5919 5918 5916 5915 5914 5913 5912 5911 5909 5907 5906 5905 5904 5903 5902 5901 5900 5899 5898 5897 5897 5897 5898
5895 5899 5901 5904 5907 5909 5911 5914 5915 5916 5918 5919 5921 5922 5922 5922 5921 5921 5920 5920 5919 5918 5917 5916 5914 5913 5912 5911 5909 5907 5906 5904 5903 5902 5901 5900 5899 5898 5897 5896 5895 5894 5894 5895
5889 5893 5897 5900 5903 5906 5908 5910 5912 5914 5916 5917 5920 5922 5921 5920 5920 5919 5919 5918 5917 5917 5916 5914 5913 5911 5910 5909 5907 5906 5904 5903 5901 5900 5899 5897 5897 5896 5894 5893 5893 5892 5891 5891
5885 5889 5892 5896 5899 5902 5904 5907 5909 5911 5913 5915 5916 5919 5920 5918 5918 5917 5917 5916 5915 5915 5914 5913 5911 5910 5909 5908 5906 5904 5903 5901 5900 5898 5897 5896 5894 5893 5892 5891 5890 5889 5889 5889
5879 5884 5887 5891 5894 5897 5900 5904 5905 5907 5910 5912 5914 5915 5917 5916 5915 5915 5914 5914 5913 5913 5912 5911 5909 5908 5907 5906 5904 5902 5901 5900 5898 5896 5895 5894 5892 5891 5890 5889 5888 5887 5886 5886
5874 5879 5882 5886 5890 5893 5897 5901 5903 5905 5907 5909 5910 5911 5913 5912 5912 5912 5912 5911 5911 5910 5909 5908 5907 5906 5905 5903 5902 5900 5898 5897 5896 5894 5892 5891 5890 5889 5887 5886 5885 5884 5884 5883
5870 5874 5878 5882 5886 5889 5893 5897 5901 5904 5906 5907 5905 5907 5909 5908 5908 5908 5908 5908 5907 5907 5907 5906 5905 5903 5902 5901 5899 5898 5896 5895 5894 5892 5890 5889 5887 5886 5885 5883 5882 5881 5881 5881
5865 5869 5873 5877 5881 5884 5887 5891 5896 5899 5900 5903 5903 5903 5904 5904 5905 5905 5905 5905 5904 5904 5903 5903 5902 5901 5900 5898 5897 5895 5894 5893 5891 5890 5888 5887 5885 5884 5882 5880 5879 5878 5878 5878
5859 5863 5867 5871 5875 5878 5883 5886 5890 5893 5895 5898 5900 5899 5901 5900 5901 5901 5901 5901 5901 5900 5900 5900 5899 5898 5897 5896 5894 5893 5892 5890 5889 5887 5886 5884 5882 5880 5879 5878 5876 5876 5876 5876
5853 5858 5862 5866 5869 5874 5878 5881 5884 5889 5891 5894 5897 5899 5896 5896 5897 5897 5897 5897 5898 5898 5897 5897 5896 5895 5894 5893 5891 5890 5888 5887 5886 5884 5883 5881 5879 5878 5876 5875 5874 5873 5873 5873
5847 5852 5856 5861 5865 5868 5872 5876 5880 5884 5886 5889 5893 5896 5891 5892 5893 5893 5894 5894 5894 5894 5894 5893 5893 5892 5891 5890 5888 5887 5885 5884 5883 5881 5879 5878 5876 5875 5874 5872 5871 5871 5870 5870
5841 5846 5851 5855 5860 5863 5866 5870 5874 5878 5881 5883 5887 5891 5887 5888 5889 5890 5890 5891 5891 5891 5891 5890 5890 5889 5888 5887 5885 5884 5882 5881 5879 5878 5876 5875 5873 5872 5870 5869 5868 5867 5867 5867
5836 5841 5847 5852 5855 5857 5861 5865 5869 5873 5875 5879 5882 5885 5883 5884 5885 5886 5887 5887 5887 5888 5888 5887 5887 5886 5885 5884 5882 5881 5879 5877 5876 5874 5873 5871 5870 5868 5867 5866 5865 5865 5864 5864
5830 5835 5841 5845 5848 5852 5856 5860 5863 5866 5871 5875 5877 5878 5879 5880 5881 5882 5883 5883 5884 5884 5884 5884 5883 5883 5882 5880 5879 5877 5876 5874 5873 5871 5870 5868 5867 5865 5864 5863 5863 5862 5862 5861
5824 5830 5835 5839 5842 5846 5850 5854 5857 5861 5865 5868 5871 5873 5875 5875 5876 5878 5879 5879 5880 5880 5880 5880 5880 5879 5878 5877 5876 5874 5873 5871 5870 5868 5867 5865 5864 5862 5861 5861 5860 5859 5859 5858
5819 5825 5830 5834 5838 5841 5845 5849 5852 5856 5859 5863 5866 5869 5869 5871 5872 5873 5874 5875 5876 5876 5876 5876 5876 5876 5875 5873 5872 5871 5869 5868 5867 5865 5864 5862 5861 5859 5858 5858 5857 5857 5856 5855
5814 5819 5824 5829 5833 5836 5842 5843 5847 5851 5854 5857 5860 5862 5864 5866 5867 5869 5870 5871 5871 5872 5872 5872 5872 5872 5871 5870 5868 5867 5866 5865 5864 5862 5861 5859 5858 5857 5856 5855 5854 5854 5853 5852
5809 5814 5819 5823 5827 5831 5834 5838 5842 5846 5849 5852 5854 5857 5859 5861 5863 5864 5865 5866 5867 5868 5868 5868 5868 5867 5867 5866 5865 5864 5863 5862 5860 5859 5858 5857 5856 5855 5854 5853 5852 5851 5850 5849
5803 5808 5814 5818 5823 5827 5830 5833 5837 5841 5843 5846 5849 5851 5853 5856 5858 5859 5860 5861 5862 5863 5863 5863 5863 5863 5863 5862 5861 5860 5859 5858 5857 5856 5855 5854 5853 5852 5851 5850 5849 5848 5847 5846
5796 5801 5806 5811 5816 5820 5823 5827 5832 5836 5838 5840 5843 5845 5848 5850 5852 5854 5855 5856 5857 5858 5858 5858 5858 5858 5858 5857 5857 5856 5855 5854 5853 5853 5852 5851 5850 5849 5848 5847 5846 5845 5844 5842
5790 5796 5800 5805 5810 5815 5817 5821 5825 5829 5831 5834 5837 5839 5842 5844 5846 5848 5850 5851 5852 5853 5853 5853 5853 5853 5853 5852 5852 5851 5850 5850 5849 5849 5848 5847 5847 5846 5844 5843 5842 5841 5840 5839
5783 5789 5793 5799 5804 5807 5811 5815 5818 5821 5824 5827 5830 5833 5835 5838 5840 5842 5844 5845 5846 5847 5848 5848 5848 5848 5848 5847 5846 5846 5846 5845 5845 5845 5844 5843 5843 5842 5840 5839 5838 5837 5836 5834
5776 5781 5786 5791 5796 5800 5804 5808 5811 5814 5818 5821 5824 5826 5829 5831 5834 5836 5838 5839 5840 5841 5842 5842 5843 5843 5842 5842 5842 5842 5841 5841 5841 5840 5840 5839 5838 5837 5836 5835 5834 5833 5832 5830
5768 5774 5779 5783 5788 5793 5796 5800 5804 5807 5811 5814 5816 5819 5822 5825 5827 5829 5831 5833 5834 5835 5836 5836 5837 5837 5837 5837 5836 5837 5837 5836 5836 5835 5835 5834 5833 5832 5831 5830 5829 5828 5827 5825
5761 5766 5771 5775 5780 5785 5789 5793 5797 5800 5804 5806 5809 5812 5815 5817 5820 5823 5824 5826 5827 5829 5829 5830 5831 5831 5831 5831 5831 5831 5831 5831 5831 5830 5830 5829 5828 5827 5826 5825 5824 5823 5822 5820
Wind_Speed
20 20 19 17 16 14 13 12 11 10 8 6 5 5 5 4 4 4 5 5 6 7 7 7 7 7 7 7 8 7 7 8 8 7 7 7 7 7 7 8 8 9 10 11
23 22 20 20 18 16 15 14 13 12 10 8 7 6 7 6 5 5 6 7 7 7 7 7 7 8 8 8 9 9 9 9 9 9 8 8 9 9 9 9 10 10 10 11
25 24 22 21 20 18 17 16 15 14 11 10 8 8 8 7 6 7 7 8 8 8 9 9 9 10 10 10 11 11 11 10 10 10 11 11 10 10 10 10 10 10 11 12
28 26 24 23 21 20 19 18 17 16 14 13 10 9 10 8 8 8 8 8 9 9 9 10 10 11 11 11 12 12 11 11 11 11 13 13 12 11 11 11 11 10 11 12
29 27 25 24 23 22 22 20 19 18 16 15 13 11 11 10 9 10 10 9 9 9 10 11 11 11 12 12 12 12 12 11 12 13 14 14 14 13 12 12 12 12 12 13
30 28 27 26 25 24 23 21 20 19 18 18 15 13 11 11 10 10 10 10 10 10 10 11 11 11 12 12 13 13 12 12 14 14 14 13 13 14 14 13 13 12 12 13
31 29 28 26 26 25 24 22 21 20 20 18 17 14 13 13 12 11 11 11 12 11 11 11 11 11 12 13 14 13 12 13 13 14 14 14 14 14 14 14 13 13 13 13
31 30 28 27 26 25 23 23 22 19 17 18 18 16 15 14 13 13 12 12 12 12 12 12 11 11 12 13 14 14 12 12 13 13 13 14 14 15 15 14 14 12 12 12
32 32 30 28 27 26 25 24 23 21 20 18 19 18 16 15 14 14 14 13 13 14 14 13 13 13 13 14 14 14 13 13 13 14 14 15 15 15 14 14 13 12 11 12
33 33 31 30 29 29 27 26 25 23 21 19 19 18 16 16 15 15 14 14 14 14 14 14 14 14 14 14 14 14 14 14 14 14 14 15 15 14 13 13 12 12 11 12
33 32 31 31 31 29 28 27 26 24 24 20 16 17 16 16 15 15 15 15 14 14 14 14 14 14 14 14 14 14 14 14 15 15 15 14 14 14 13 13 13 12 12 13
33 32 31 31 30 30 29 28 26 25 24 21 17 17 17 16 15 15 15 15 14 15 14 14 14 14 14 14 13 13 14 14 15 15 15 15 14 14 14 13 13 12 11 12
33 33 31 31 31 30 30 29 27 25 24 23 19 18 18 16 16 15 15 15 14 14 14 14 14 14 14 14 14 14 14 15 15 15 16 16 15 14 14 13 12 12 12 12
32 31 30 27 27 28 28 27 26 26 25 23 20 18 18 16 16 15 15 15 15 15 14 14 14 14 14 15 15 15 15 15 15 15 15 16 15 14 13 13 13 12 12 13
31 31 30 29 29 28 27 27 26 26 24 22 20 19 18 17 16 16 15 15 15 15 15 15 15 15 15 15 15 15 15 14 14 14 15 15 14 13 13 13 13 13 13 14
31 30 30 30 29 28 27 27 27 26 25 23 22 20 19 18 17 17 16 15 15 15 16 16 16 15 15 15 15 15 14 14 14 14 14 14 13 13 13 12 12 13 13 14
30 30 29 29 29 29 28 27 26 25 24 23 21 20 20 19 18 18 17 16 16 16 16 16 17 16 16 16 16 16 15 15 15 15 14 14 14 13 13 13 13 13 14 15
31 30 29 27 29 29 28 26 25 25 24 23 22 21 21 20 19 18 18 17 17 16 16 17 17 17 17 16 16 16 16 16 15 15 14 14 13 13 12 13 13 13 14 14
31 31 29 28 27 27 28 26 25 24 24 23 23 22 22 21 19 19 19 19 18 18 17 17 18 17 17 17 17 17 17 17 15 15 14 14 13 13 13 13 13 14 14 14
32 31 31 29 26 25 28 26 24 24 24 23 23 23 23 22 21 20 20 20 20 19 19 19 19 19 19 18 18 18 18 17 16 15 15 15 14 14 14 14 14 15 15 15
33 32 31 30 28 27 28 26 25 25 25 24 23 23 23 24 23 21 21 21 20 20 20 20 20 20 19 19 18 19 19 18 17 17 16 16 16 16 15 15 15 16 16 16
34 33 32 30 29 29 28 26 26 26 26 25 24 24 24 24 24 23 22 22 21 21 21 21 21 20 20 19 19 19 19 18 17 17 16 16 16 16 17 17 17 17 17 17
35 36 35 33 32 30 28 27 26 26 26 26 25 25 25 25 25 24 24 24 23 23 23 22 21 21 20 19 19 19 19 19 18 17 17 17 17 18 18 18 18 18 18 18
36 35 34 34 33 31 30 29 28 27 27 27 26 26 26 26 26 25 25 24 24 24 23 22 21 21 20 20 19 19 19 19 19 19 18 19 19 19 19 19 19 19 19 20
36 35 35 34 34 33 32 31 30 29 28 28 28 28 27 27 26 25 25 25 24 24 23 22 22 21 21 20 20 20 20 19 19 20 20 20 20 19 19 20 20 20 21 21
36 36 36 36 35 34 33 32 31 30 29 29 29 29 28 28 27 26 25 24 24 24 23 23 23 22 22 21 21 21 20 20 21 21 21 20 20 20 20 20 21 21 22 22
Wind_Direction
225 227 228 229 229 230 232 234 238 242 246 244 246 255 269 274 281 291 296 302 313 320 327 330 330 326 327 329 326 322 320 322 318 314 308 307 307 310 308 301 290 270 260 254
226 228 228 230 231 233 235 236 240 245 247 248 252 259 266 270 271 282 288 291 294 304 316 320 328 322 321 320 318 318 313 315 314 312 309 304 305 307 306 296 292 277 265 257
227 228 228 229 230 233 235 237 240 245 250 252 257 266 268 266 269 277 285 288 285 290 297 306 317 316 317 314 314 313 310 309 309 309 306 302 301 303 300 297 290 279 267 263
227 227 227 228 229 231 234 237 241 245 248 254 254 256 268 268 272 279 283 282 283 287 288 294 304 305 308 311 312 310 309 309 309 308 304 304 300 298 295 292 289 280 273 262
228 227 226 227 228 230 233 237 241 245 248 253 257 255 262 270 271 276 280 280 279 281 286 293 297 298 301 306 309 305 305 306 309 307 305 305 303 298 296 291 287 283 275 265
227 225 225 227 228 229 233 236 241 245 248 251 255 258 259 263 267 267 271 276 276 278 287 294 296 295 297 299 303 303 303 301 303 303 301 301 298 299 297 291 286 282 275 267
227 226 226 228 229 230 232 234 238 242 246 250 256 256 253 258 262 264 269 272 273 277 283 291 294 295 294 298 302 302 300 300 302 302 299 298 299 299 298 292 286 282 277 272
228 228 227 228 229 232 232 233 233 237 246 252 258 257 258 260 262 264 269 271 271 276 280 287 292 296 296 295 297 300 299 296 299 302 302 302 301 300 299 296 287 283 279 275
227 229 228 228 229 230 231 230 231 237 239 243 256 258 259 261 261 263 266 267 268 275 278 281 287 292 295 295 296 296 295 296 298 299 300 303 301 300 296 293 288 280 277 275
225 228 229 229 229 229 230 231 233 234 240 244 255 261 259 258 258 259 261 262 267 272 275 279 283 287 293 295 294 293 293 293 295 298 299 300 300 299 295 289 288 284 277 276
224 227 228 228 228 230 231 232 234 236 239 242 252 260 256 256 254 254 258 261 263 268 274 277 279 284 290 293 292 290 289 292 292 295 297 299 297 297 295 288 284 282 278 275
222 224 227 227 228 229 230 232 235 237 243 244 244 256 257 254 253 254 257 258 261 267 271 275 278 284 288 291 291 292 289 291 292 293 295 297 294 294 296 293 288 284 282 282
221 223 224 226 228 229 230 232 233 236 241 243 243 253 257 254 252 254 256 257 260 265 269 274 278 283 287 290 291 291 289 290 291 291 293 295 294 294 294 292 289 285 286 285
220 222 222 227 231 231 231 231 232 234 238 244 243 246 255 252 252 252 254 256 258 264 266 271 278 282 286 288 290 289 288 290 289 290 291 294 293 293 294 291 287 284 284 287
220 222 221 221 226 228 230 231 232 232 235 239 244 245 248 249 248 250 253 254 257 261 264 271 277 282 285 288 290 290 290 290 290 291 292 293 292 292 294 290 285 283 283 286
220 221 221 223 226 227 228 228 229 230 232 236 240 244 245 247 247 248 250 253 256 259 262 267 273 280 286 288 288 290 290 291 291 292 294 295 294 293 292 290 287 286 286 285
220 220 221 224 226 228 229 229 229 230 233 236 240 242 243 243 243 245 247 250 253 258 261 266 269 273 281 286 287 289 289 291 293 294 293 294 294 294 292 289 287 286 287 287
219 219 221 223 225 227 230 230 230 231 233 236 238 239 240 242 242 244 246 249 252 255 259 263 265 271 278 283 285 286 286 289 292 293 292 292 292 293 292 292 287 287 289 291
218 219 220 223 227 229 231 230 231 232 235 237 238 238 238 240 243 244 246 248 250 253 257 262 265 270 276 280 282 285 284 286 288 288 289 289 289 290 291 292 290 291 291 291
216 218 221 222 223 229 232 229 229 232 236 237 238 239 239 240 242 245 244 246 248 252 257 262 266 270 273 276 278 281 283 284 284 285 287 287 289 293 295 293 290 291 291 292
216 218 220 223 224 228 230 227 228 232 236 237 238 239 240 240 241 243 243 245 249 254 258 261 265 270 271 274 275 277 279 281 283 283 283 283 287 291 293 293 294 293 293 295
217 220 221 222 224 230 227 227 229 233 236 238 239 240 240 240 240 241 242 246 250 255 258 261 264 267 270 273 273 276 277 278 279 279 280 281 285 289 292 293 292 291 292 293
219 220 221 222 225 229 228 229 231 233 235 238 239 240 239 238 239 241 243 246 250 255 259 262 264 266 268 271 272 272 273 273 273 277 278 280 285 288 289 290 290 290 291 292
221 222 225 226 228 230 230 231 232 235 237 239 240 240 239 238 239 242 244 247 250 253 258 261 263 265 267 269 269 268 272 271 271 275 278 281 284 286 286 286 288 291 292 293
222 223 225 227 229 230 231 233 235 237 238 240 239 238 237 237 240 243 245 246 248 251 255 258 261 264 264 266 266 267 268 268 272 275 278 281 282 282 283 284 286 289 291 292
222 224 225 227 228 231 232 234 237 239 240 240 240 238 237 237 239 241 244 245 246 249 253 255 259 263 263 265 265 263 265 268 271 274 277 278 280 281 282 283 285 287 289 291